Weather WX

World > North America > United States > Oregon

Riverside, Oregon Regional Weather

Lat: 43.55N, Lon: 118.15W
Wx Zone: ORZ063
Feedback

Riverside, OR Regional Weather

Expires:201906182300;;700612
ASUS46 KPQR 182210
RWROR 

OREGON REGIONAL WEATHER ROUNDUP
NATIONAL WEATHER SERVICE PORTLAND OR
300 PM PDT TUE JUN 18 2019

NOTE: "FAIR" INDICATES FEW OR NO CLOUDS BELOW 12,000 FEET WITH
NO SIGNIFICANT WEATHER AND/OR OBSTRUCTIONS TO VISIBILITY.


ORZ029>031-041-044-049-050-061>064-502-503-505>511-182300-
EASTERN OREGON

  
CITY           SKY/WX    TMP DP  RH WIND       PRES   REMARKS
MADRAS         SUNNY     77  36  22 NW20G25   30.14S                  
REDMOND        SUNNY     82  43  25 NW10G20   30.13S                  
BEND           SUNNY     81  37  21 N14G23    30.13F                  
PRINEVILLE     SUNNY     77  39  25 N10G18    30.13F                  
KLAMATH FALLS  SUNNY     83  43  24 SW8       30.13F                  
LAKEVIEW       SUNNY     81  41  24 SE8       30.16F                  
HERMISTON      SUNNY     86  49  27 SW10G22   29.98F                  
PENDLETON      SUNNY     83  47  28 W18G25    30.02F                  
JOHN DAY       SUNNY     81  35  19 W14G22    30.11S                  
MEACHAM        SUNNY     72  46  39 MISG      30.12F                  
LA GRANDE      SUNNY     78  43  28 NW16G28   30.06F                  
BAKER CITY     SUNNY     81  48  31 N13G18    30.07S                  
BURNS          SUNNY     83  37  19 NW13G20   30.11F                  
ROME             N/A     88  31  13 N8G20     30.06F                  
ONTARIO        SUNNY     92  43  18 NW8       29.97F                  
$$
  

SKY/WX - Weather  TMP - Temperature  DP - Dew Point  RH - Relative Humidity
WIND - Wind Direction/Speed PRES - Barometric Pressure VSB - Visibility
WCI - Wind Chill Index E13G22 Wind - East Wind 13 mph/Gusts of 22 mph